Weather History for Pensacola, FL

Change the Weather History Date:

Wednesday, January 2, 2013

  Actual Average Record
Temperature  
Mean Temperature 54 °F 51 °F  
Max Temperature 61 °F 60 °F 77 °F (1966)
Min Temperature 47 °F 42 °F 17 °F (1928)
Degree Days  
Heating Degree Days 11 14  
Month to date heating degree days 11 28  
Since 1 July heating degree days 455 610  
Cooling Degree Days 0 0  
Month to date cooling degree days 1 0  
Year to date cooling degree days 1 0  
Growing Degree Days 2 (Base 50)    
Moisture  
Dew Point 48 °F    
Average Humidity 80    
Maximum Humidity 93    
Minimum Humidity 67    
Precipitation  
Precipitation T in 0.13 in 3.70 in (1936)
Month to date precipitation 0.01 0.27  
Year to date precipitation 0.01 0.27  
Snow  
Snow 0.00 in 0.00 in T in (2002)
Month to date snowfall 0.0 0.0  
Since 1 July snowfall 0.0 0.0  
Snow Depth 0.00 in    
Sea Level Pressure  
Sea Level Pressure 30.08 in    
Wind  
Wind Speed 11 mph (North)    
Max Wind Speed 17 mph    
Max Gust Speed 22 mph    
Visibility 10 miles    
Events Rain    
T = Trace of Precipitation, MM = Missing Value Source: NWS Daily Summary

Daily Weather History Graph

Daily Weather History Graph

Search for Another Location

Airport:

Trip Planner

Search our weather history database for the weather conditions in past years. The results will help you decide how hot, cold, wet, or windy it might be!

Date:

Astronomy

Jan. 02, 2013 Rise Set
Actual Time 6:46 AM CST 5:00 PM CST
Civil Twilight 6:19 AM CST 5:26 PM CST
Nautical Twilight 5:49 AM CST 5:56 PM CST
Astronomical Twilight 5:20 AM CST 6:25 PM CST
Moon 10:07 PM CST (1/2) 9:49 AM CST (1/2)
Length of Visible Light 11h 06m
Length of Day
10h 13m
Waning Gibbous, 75% of the Moon is Illuminated
Jan 2
Waning Gibbous
Jan 4
Last Quarter
Jan 11
New
Jan 18
First Quarter
Jan 26
Full

Hourly Weather History & Observations

Time (CST) Temp. Dew Point Humidity Pressure Visibility Wind Dir Wind Speed Gust Speed Precip Events Conditions
12:53 AM 57.9 °F 55.0 °F 90% 29.99 in 10.0 mi North 13.8 mph - 0.00 in   Overcast
1:53 AM 57.0 °F 54.0 °F 89% 30.01 in 10.0 mi NNW 12.7 mph - N/A   Overcast
2:53 AM 55.9 °F 54.0 °F 93% 30.02 in 7.0 mi North 11.5 mph - N/A   Overcast
3:30 AM 55.4 °F 53.6 °F 94% 30.01 in 10.0 mi North 9.2 mph - N/A   Overcast
3:53 AM 55.9 °F 53.1 °F 90% 30.02 in 10.0 mi North 10.4 mph - N/A   Overcast
4:04 AM 55.4 °F 53.6 °F 94% 30.01 in 10.0 mi North 9.2 mph - N/A   Overcast
4:36 AM 55.4 °F 51.8 °F 88% 30.02 in 6.0 mi North 10.4 mph 18.4 mph 0.00 in Rain Light Rain
4:53 AM 54.0 °F 52.0 °F 93% 30.03 in 4.0 mi North 12.7 mph - 0.00 in Rain Light Rain
5:53 AM 53.1 °F 50.0 °F 89% 30.05 in 10.0 mi North 9.2 mph - 0.00 in   Overcast
6:03 AM 53.6 °F 50.0 °F 88% 30.04 in 10.0 mi North 11.5 mph - N/A   Overcast
6:46 AM 53.6 °F 50.0 °F 88% 30.06 in 10.0 mi North 9.2 mph - N/A   Overcast
6:53 AM 53.1 °F 50.0 °F 89% 30.06 in 10.0 mi North 10.4 mph - N/A   Overcast
7:53 AM 53.1 °F 48.9 °F 86% 30.09 in 10.0 mi North 12.7 mph 19.6 mph N/A   Overcast
8:53 AM 55.4 °F 48.2 °F 77% 30.11 in 10.0 mi North 9.2 mph - N/A   Mostly Cloudy
9:53 AM 55.9 °F 46.9 °F 72% 30.13 in 10.0 mi NNE 10.4 mph - N/A   Mostly Cloudy
10:53 AM 57.9 °F 46.9 °F 67% 30.12 in 10.0 mi North 10.4 mph - N/A   Mostly Cloudy
11:53 AM 55.9 °F 46.0 °F 69% 30.10 in 10.0 mi North 10.4 mph - N/A   Overcast
12:53 PM 55.9 °F 46.0 °F 69% 30.07 in 10.0 mi North 10.4 mph - N/A   Overcast
1:53 PM 54.0 °F 45.0 °F 72% 30.06 in 10.0 mi North 8.1 mph - N/A   Overcast
2:53 PM 54.0 °F 45.0 °F 72% 30.07 in 10.0 mi North 10.4 mph - N/A   Overcast
3:53 PM 54.0 °F 45.0 °F 72% 30.09 in 10.0 mi NNW 9.2 mph - N/A   Overcast
4:53 PM 53.1 °F 45.0 °F 74% 30.12 in 10.0 mi NNW 9.2 mph - N/A   Overcast
5:53 PM 51.1 °F 44.1 °F 77% 30.15 in 10.0 mi NNW 13.8 mph - N/A   Overcast
6:53 PM 50.0 °F 43.0 °F 77% 30.15 in 10.0 mi North 13.8 mph - N/A   Overcast
7:53 PM 50.0 °F 44.1 °F 80% 30.15 in 10.0 mi North 11.5 mph 18.4 mph N/A   Overcast
8:53 PM 48.9 °F 42.1 °F 77% 30.16 in 10.0 mi North 10.4 mph 20.7 mph N/A   Overcast
9:53 PM 48.0 °F 42.1 °F 80% 30.17 in 10.0 mi North 13.8 mph - N/A   Overcast
10:53 PM 48.0 °F 42.1 °F 80% 30.16 in 10.0 mi North 9.2 mph - N/A   Overcast
11:53 PM 46.9 °F 42.1 °F 83% 30.17 in 10.0 mi North 13.8 mph - 0.00 in Rain Light Rain